[[{"header":{"parameterUnit":"m.s-1","parameterCategory":1,"la1":30.2991,"la2":30.254,"lo1":-89.0895,"lo2":-89.0444,"dy":0.0017,"dx":0.0017,"nx":28,"ny":28,"refTime":"2024-12-15T09:00:00:Z","depth":0,"parameterNumber":2,"parameterNumberName":"U-component_of_WINDS"},"data":[0,0,0,0,0,0,0,0,0,0,0,0,0,0,0,0,0,0,0,0,0,0,0,0,0,0,0,0,0,0,0,0,0,0,0,0,0,0,0,0,0,0,0,0,0,0,0,0,0,0,0,0,0,0,0,0,0,0,-4.2025,-4.2026,0,-4.2059,-4.2059,-4.206,-4.2002,-4.2,-4.1998,-4.1996,-4.2034,-4.2036,-4.2039,0,0,0,0,0,0,0,0,0,0,0,0,0,-4.1915,-4.1917,-4.2025,-4.2026,-4.2026,-4.2059,-4.2059,-4.206,-4.2002,-4.2,-4.1998,-4.1995,-4.2033,-4.2036,-4.2039,0,0,0,0,0,0,0,0,0,0,0,0,0,-4.1957,-4.1918,-4.2025,-4.2001,-4.1999,-4.2059,-4.2059,-4.206,-4.2003,-4.2,-4.1997,-4.1994,-4.2031,-4.2036,-4.204,-4.2125,0,0,-4.2053,-4.2055,0,0,0,0,0,0,0,0,-4.1955,-4.1961,-4.2004,-4.2003,-4.2001,-4.2023,-4.2034,-4.2082,-4.2004,-4.2002,-4.1996,-4.1993,-4.2033,-4.2037,-4.2049,-4.2127,-4.2128,-4.2053,-4.2056,-4.2057,-4.2059,0,0,0,0,0,0,0,-4.1952,-4.196,-4.2039,-4.2005,-4.2003,-4.199,-4.1993,-4.2043,-4.2033,-4.2002,-4.1997,-4.2002,-4.2031,-4.2046,-4.205,-4.2129,-4.2053,-4.2057,-4.2059,-4.2061,-4.228,-4.2283,0,0,0,0,0,0,-4.1952,-4.1957,-4.2037,-4.204,-4.197,-4.1995,-4.1998,-4.2019,-4.2033,-4.2032,-4.2005,-4.1999,-4.204,-4.2045,-4.2051,-4.2152,-4.2057,-4.2061,-4.2064,-4.2276,-4.228,-4.2284,0,0,0,0,0,0,-4.1949,-4.1959,-4.2036,-4.1997,-4.2006,-4.2,-4.2024,-4.2021,-4.2035,-4.2035,-4.2033,-4.2021,-4.2038,-4.2045,-4.2107,-4.2153,-4.2063,-4.2067,-4.2273,-4.2278,-4.2282,-4.2355,0,0,0,0,0,0,-4.1946,-4.1959,-4.199,-4.1999,-4.2009,-4.209,-4.2027,-4.2024,-4.2043,-4.2036,-4.205,-4.2049,-4.2036,-4.2101,-4.2111,-4.2157,-4.207,-4.2268,-4.2275,-4.2281,-4.2348,-4.2361,-4.2373,0,0,0,0,0,-4.1943,-4.2009,-4.1992,-4.2002,-4.2047,-4.2093,-4.2099,-4.2082,-4.2047,-4.2078,-4.2079,-4.2049,-4.2147,-4.2108,-4.2119,-4.2166,-4.2265,-4.2273,-4.228,-4.2343,-4.2359,-4.2373,0,0,0,0,0,0,-4.2006,-4.2009,-4.199,-4.2061,-4.2077,-4.2083,-4.2122,-4.2099,-4.2126,-4.2119,-4.2098,-4.2101,-4.2168,-4.2174,-4.2131,-4.2251,-4.22,-4.221,-4.2244,-4.2259,-4.2272,-4.2268,-4.2074,0,0,0,0,0,-4.2028,-4.2064,-4.2066,-4.2128,-4.2137,-4.2129,-4.2148,-4.2134,-4.215,-4.2157,-4.2161,-4.2179,-4.2214,-4.2237,-4.2269,-4.235,-4.2352,-4.2388,-4.24,-4.241,-4.2419,-4.2463,-4.2479,-4.2308,-4.2308,-4.2308,0,0,-4.2074,-4.208,-4.2104,-4.2141,-4.2152,-4.2191,-4.2135,-4.2178,-4.2207,-4.2164,-4.2222,-4.2227,-4.2246,-4.2318,-4.2349,-4.2324,-4.2467,-4.242,-4.2428,-4.2431,-4.2472,-4.2489,-4.2503,-4.2313,-4.2312,-4.2311,0,0,-4.2177,-4.2186,-4.2239,-4.2251,-4.2268,-4.2263,-4.2276,-4.2287,-4.2288,-4.2346,-4.2315,-4.2351,-4.2411,-4.2425,-4.2441,-4.2554,-4.2528,-4.2566,-4.2629,-4.2673,-4.2686,-4.2698,-4.2739,-4.2753,-4.2574,-4.2574,-4.2575,0,-4.2232,-4.2288,-4.2269,-4.2315,-4.2333,-4.2296,-4.2351,-4.2364,-4.2392,-4.2405,-4.2377,-4.2453,-4.2463,-4.2538,-4.2566,-4.258,-4.2595,-4.2563,-4.2686,-4.2697,-4.2708,-4.2747,-4.2762,-4.2579,-4.2578,-4.2578,-4.2577,0,-4.2355,-4.2395,-4.2437,-4.2463,-4.2486,-4.2537,-4.2527,-4.2553,-4.2538,-4.2536,-4.2598,-4.2609,-4.2643,-4.2661,-4.2646,-4.2735,-4.2719,-4.2689,-4.2637,-4.2729,-4.2765,-4.2779,-4.2585,-4.2583,-4.2582,-4.2581,0,0,-4.2495,-4.2514,-4.2529,-4.2542,-4.256,-4.2591,-4.2641,-4.2674,-4.2697,-4.2719,-4.276,-4.2814,-4.2787,-4.2805,-4.2792,-4.2831,-4.292,-4.2796,-4.2796,-4.2818,-4.302,-4.3042,-4.3059,-4.2904,-4.2907,-4.2909,-4.3018,0,-4.2598,-4.2682,-4.2668,-4.2751,-4.2789,-4.2756,-4.28,-4.2817,-4.2818,-4.2851,-4.2852,-4.289,-4.2851,-4.2862,-4.2899,-4.2901,-4.296,-4.2894,-4.2944,-4.2946,-4.2938,-4.3078,-4.31,-4.3202,-4.3032,-4.3035,-4.3036,0,-4.2727,-4.2753,-4.284,-4.2854,-4.2869,-4.2908,-4.2939,-4.2971,-4.2991,-4.2989,-4.3011,-4.2992,-4.3044,-4.2994,-4.3066,-4.3021,-4.3041,-4.3046,-4.305,-4.3052,-4.2995,-4.3083,-4.3235,-4.325,-4.3058,-4.3056,-4.3055,0,-4.2821,-4.2878,-4.2937,-4.2949,-4.2967,-4.2996,-4.3005,-4.3022,-4.3043,-4.3071,-4.3085,-4.3119,-4.3137,-4.3165,-4.3157,-4.3121,-4.3231,-4.318,-4.3232,-4.3232,-4.3254,-4.3253,-4.341,-4.327,-4.327,-4.3269,-4.3269,0,-4.2935,-4.2989,-4.2979,-4.3016,-4.3076,-4.3062,-4.3122,-4.3128,-4.3144,-4.3182,-4.3157,-4.3193,-4.3181,-4.3217,-4.3212,-4.3273,-4.3282,-4.3282,-4.328,-4.3284,-4.3284,-4.3295,-4.3288,-4.3273,-4.3272,-4.3272,-4.3271,0,-4.3048,-4.3044,-4.3106,-4.3119,-4.3124,-4.3168,-4.318,-4.3215,-4.3215,-4.3264,-4.3274,-4.3275,-4.3317,-4.3312,-4.336,-4.3356,-4.3432,-4.3422,-4.3425,-4.3422,-4.3474,-4.3469,-4.3643,-4.3666,-4.3512,-4.3513,-4.3515,0,-4.3121,-4.3162,-4.318,-4.3203,-4.3214,-4.3253,-4.3275,-4.3264,-4.3288,-4.3316,-4.3348,-4.3388,-4.3419,-4.3488,-4.3493,-4.353,-4.352,-4.3579,-4.3525,-4.3528,-4.352,-4.3518,-4.3522,-4.3589,-4.359,-4.3592,-4.3593,0,-4.325,-4.3247,-4.3279,-4.3312,-4.334,-4.3365,-4.3388,-4.341,-4.3401,-4.343,-4.3473,-4.3497,-4.3546,-4.3587,-4.3622,-4.3633,-4.3612,-4.361,-4.3624,-4.3628,-4.3628,-4.3628,-4.3452,-4.3606,-4.3604,-4.3603,-4.3603,-4.3602,-4.3345,-4.338,-4.3399,-4.3437,-4.3453,-4.3476,-4.351,-4.3515,-4.355,-4.3589,-4.3581,-4.3629,-4.3651,-4.3696,-4.3711,-4.375,-4.3729,-4.3749,-4.3754,-4.3759,-4.3765,-4.3623,-4.3757,-4.3757,-4.3756,-4.3756,-4.3756,0,-4.3472,-4.3483,-4.3518,-4.3552,-4.3583,-4.3561,-4.3587,-4.3614,-4.3656,-4.3678,-4.371,-4.376,-4.38,-4.381,-4.3849,-4.3878,-4.387,-4.3889,-4.3886,-4.3889,-4.3782,-4.3765,-4.3895,-4.3895,-4.3895,-4.3895,-4.3895,-4.3895,-4.3542,-4.3601,-4.36,-4.3668,-4.3679,-4.3726,-4.3743,-4.3765,-4.3782,-4.3839,-4.3872,-4.3878,-4.3896,-4.3937,-4.3973,-4.3975,-4.399,-4.4013,-4.4011,-4.391,-4.3896,-4.3883,-4.3868,-4.4017,-4.4017,-4.4115,-4.4116,-4.4117]},{"header":{"parameterUnit":"m.s-1","parameterCategory":1,"la1":30.2991,"la2":30.254,"lo1":-89.0895,"lo2":-89.0444,"dy":0.0017,"dx":0.0017,"nx":28,"ny":28,"refTime":"2024-12-15T09:00:00:Z","depth":0,"parameterNumber":3,"parameterNumberName":"V-component_of_WINDS"},"data":[0,0,0,0,0,0,0,0,0,0,0,0,0,0,0,0,0,0,0,0,0,0,0,0,0,0,0,0,0,0,0,0,0,0,0,0,0,0,0,0,0,0,0,0,0,0,0,0,0,0,0,0,0,0,0,0,0,0,0.964,0.964,0,0.9638,0.9638,0.9638,0.964,0.9641,0.9641,0.9641,0.9638,0.9638,0.9637,0,0,0,0,0,0,0,0,0,0,0,0,0,0.9646,0.9646,0.964,0.964,0.964,0.9638,0.9638,0.9638,0.964,0.9641,0.9641,0.9641,0.9638,0.9638,0.9637,0,0,0,0,0,0,0,0,0,0,0,0,0,0.9643,0.9645,0.964,0.9641,0.9641,0.9638,0.9638,0.9638,0.964,0.9641,0.9641,0.9641,0.9638,0.9638,0.9637,0.9633,0,0,0.9637,0.9637,0,0,0,0,0,0,0,0,0.9644,0.9643,0.9641,0.9641,0.9641,0.964,0.9639,0.9637,0.964,0.9641,0.9641,0.9641,0.9638,0.9638,0.9637,0.9633,0.9633,0.9637,0.9636,0.9636,0.9636,0,0,0,0,0,0,0,0.9644,0.9643,0.9639,0.9641,0.9641,0.9642,0.9641,0.9639,0.9639,0.9641,0.9641,0.9641,0.9638,0.9638,0.9637,0.9633,0.9637,0.9636,0.9636,0.9636,0.9628,0.9628,0,0,0,0,0,0,0.9644,0.9643,0.9639,0.9639,0.9643,0.9641,0.9641,0.964,0.9639,0.9639,0.964,0.9641,0.9638,0.9638,0.9637,0.9634,0.9636,0.9636,0.9636,0.9628,0.9628,0.9628,0,0,0,0,0,0,0.9644,0.9643,0.9639,0.9641,0.9641,0.9641,0.964,0.964,0.9639,0.9639,0.9639,0.964,0.9638,0.9637,0.9635,0.9634,0.9636,0.9636,0.9628,0.9628,0.9628,0.9626,0,0,0,0,0,0,0.9644,0.9643,0.9642,0.9641,0.9641,0.9637,0.964,0.964,0.9639,0.9639,0.9638,0.9638,0.9638,0.9635,0.9635,0.9633,0.9636,0.9628,0.9628,0.9628,0.9626,0.9626,0.9625,0,0,0,0,0,0.9644,0.964,0.9642,0.9641,0.9639,0.9637,0.9637,0.9637,0.9639,0.9637,0.9637,0.9638,0.9634,0.9635,0.9634,0.9633,0.9628,0.9628,0.9628,0.9626,0.9626,0.9626,0,0,0,0,0,0,0.964,0.964,0.9641,0.9637,0.9637,0.9637,0.9635,0.9636,0.9635,0.9635,0.9636,0.9636,0.9633,0.9633,0.9634,0.963,0.9631,0.9631,0.963,0.963,0.963,0.963,0.9635,0,0,0,0,0,0.9638,0.9637,0.9638,0.9634,0.9634,0.9635,0.9634,0.9635,0.9634,0.9634,0.9634,0.9633,0.9632,0.9631,0.9629,0.9626,0.9627,0.9625,0.9625,0.9625,0.9624,0.9624,0.9624,0.9627,0.9627,0.9627,0,0,0.9635,0.9635,0.9634,0.9633,0.9633,0.9632,0.9634,0.9633,0.9632,0.9633,0.9631,0.9631,0.9631,0.9628,0.9627,0.9628,0.9624,0.9624,0.9624,0.9624,0.9624,0.9624,0.9623,0.9627,0.9627,0.9627,0,0,0.9629,0.9629,0.9627,0.9627,0.9627,0.9628,0.9628,0.9628,0.9628,0.9627,0.9628,0.9627,0.9625,0.9625,0.9625,0.9621,0.9622,0.9621,0.9619,0.9619,0.9619,0.9619,0.9618,0.9618,0.9621,0.9621,0.9621,0,0.9625,0.9623,0.9625,0.9624,0.9624,0.9627,0.9625,0.9625,0.9624,0.9625,0.9625,0.9624,0.9623,0.9622,0.9621,0.9621,0.9621,0.9621,0.9619,0.9618,0.9618,0.9618,0.9618,0.962,0.962,0.962,0.962,0,0.9619,0.9618,0.9616,0.9617,0.9617,0.9615,0.9618,0.9617,0.9619,0.962,0.9619,0.9619,0.9618,0.9618,0.9619,0.9617,0.9618,0.9619,0.962,0.9618,0.9618,0.9618,0.962,0.962,0.962,0.962,0,0,0.9608,0.9612,0.9611,0.9613,0.9614,0.9614,0.9613,0.9613,0.9614,0.9614,0.9614,0.9613,0.9614,0.9614,0.9615,0.9615,0.9614,0.9616,0.9616,0.9616,0.9613,0.9613,0.9613,0.9615,0.9615,0.9614,0.9614,0,0.9603,0.9602,0.9605,0.9604,0.9604,0.9607,0.9607,0.9608,0.9609,0.961,0.9611,0.9611,0.9612,0.9612,0.9612,0.9614,0.9613,0.9614,0.9615,0.9615,0.9615,0.9612,0.9612,0.9611,0.9614,0.9613,0.9613,0,0.9596,0.9598,0.9597,0.96,0.96,0.96,0.9602,0.9602,0.9604,0.9605,0.9606,0.9608,0.9608,0.9609,0.961,0.9611,0.9611,0.9612,0.9612,0.9612,0.9614,0.9613,0.961,0.961,0.9613,0.9613,0.9613,0,0.959,0.9591,0.9592,0.9592,0.9596,0.9596,0.9598,0.96,0.9601,0.9602,0.9603,0.9604,0.9605,0.9606,0.9608,0.9609,0.9609,0.9611,0.9611,0.9611,0.961,0.961,0.9608,0.961,0.961,0.961,0.961,0,0.9584,0.9583,0.9589,0.9589,0.9589,0.9593,0.9592,0.9594,0.9597,0.9598,0.96,0.9601,0.9604,0.9605,0.9607,0.9608,0.9608,0.961,0.961,0.961,0.9609,0.961,0.961,0.961,0.961,0.961,0.961,0,0.9576,0.958,0.9581,0.9585,0.9586,0.9586,0.959,0.9591,0.9593,0.9594,0.9595,0.9598,0.96,0.9603,0.9605,0.9606,0.9607,0.9608,0.9607,0.9607,0.9608,0.9608,0.9606,0.9606,0.9608,0.9608,0.9607,0,0.9572,0.9572,0.9577,0.9579,0.9581,0.9582,0.9584,0.9588,0.9589,0.9593,0.9593,0.9595,0.9597,0.96,0.9603,0.9605,0.9606,0.9605,0.9606,0.9606,0.9607,0.9607,0.9608,0.9605,0.9605,0.9605,0.9605,0,0.9565,0.9568,0.957,0.9573,0.9575,0.9578,0.9581,0.9581,0.9586,0.9588,0.959,0.9592,0.9595,0.9598,0.9601,0.9603,0.9605,0.9605,0.9605,0.9605,0.9604,0.9605,0.9607,0.9605,0.9605,0.9605,0.9605,0.9605,0.956,0.9561,0.9565,0.9568,0.9571,0.9574,0.9575,0.9579,0.9581,0.9585,0.9587,0.959,0.9593,0.9598,0.96,0.9602,0.9603,0.9603,0.9603,0.9603,0.9604,0.9604,0.9603,0.9603,0.9603,0.9603,0.9603,0,0.9554,0.9557,0.956,0.9565,0.9567,0.957,0.9574,0.9576,0.9579,0.9582,0.9585,0.9588,0.9592,0.9595,0.9599,0.96,0.9601,0.9601,0.9601,0.9602,0.9602,0.9602,0.96,0.96,0.96,0.96,0.96,0.96,0.9551,0.9553,0.9556,0.956,0.9564,0.9567,0.9569,0.9573,0.9576,0.958,0.9583,0.9586,0.959,0.9594,0.9597,0.9599,0.96,0.9599,0.9601,0.9601,0.9601,0.9602,0.9602,0.96,0.96,0.96,0.96,0.96]}]]